sat.trackr.live / text

‹ back to catalog

STARLINK-1012

NORAD 44718 · 2019-074F

PAYLOAD ACTIVE UNKNOWN

§ Identity

Operator
Country
US
Launch date
2019-11-11
Launch site
AFETR
Launch vehicle
Mass (kg)
RCS (m²)

Purposes: comms

External: N2YO · Heavens-Above · Gunter

§ Orbital elements

Epoch: 2026-05-25T04:57:58.688928Z

Period
93.07 min
Inclination
53.1575°
Eccentricity
0.0002703
Mean motion
15.47270300 rev/d
Perigee alt
422.9 km
Apogee alt
426.6 km
Semi-major
6,802.9 km
B*
8.0783e-4
RAAN
178.8103°
Arg perigee
33.2218°
Mean anomaly
326.8960°
Rev number
36,064

§ Raw data

STARLINK-10121 44718U 19074F   26145.20692927  .00041629  00000+0  80783-3 0  99902 44718  53.1575 178.8103 0002703  33.2218 326.8960 15.47270300360643

JSON: /api/v1/satellites/44718 · /tle

For live sub-satellite position, see the globe view (requires WebGL).

§ Visibility from observer

Set your observer location to see the next 7 days of passes ≥ 10°. The values pass through the URL so the page stays shareable.

No JS? Fill the form by hand. The geolocation button needs JavaScript.